Location: Clanezzo
(45.7500°N, 9.6000°E)
Time: 15:13:47
(UTC+00:00)

SPROUT - Visible Passes

Search period start: 02 July 2022 00:00
Search period end: 12 July 2022 00:00
Orbit: 588 x 601 km, 97.9° (Epoch: 01 July)

Date Brightness Start Highest point End Pass type
(mag) Time Alt. Az. Time Alt. Az. Time Alt. Az.
02 Jul ? 00:29:25 47° SW 00:30:03 53° W 00:34:09 10° NNW visible
02 Jul ? 23:02:20 15° E 23:04:13 20° ENE 23:07:16 10° NNE visible
03 Jul ? 00:38:59 39° WSW 00:39:32 41° W 00:43:31 10° NNW visible
03 Jul ? 23:11:54 19° E 23:13:34 24° ENE 23:16:57 10° NNE visible
04 Jul ? 00:48:33 32° WSW 00:49:02 33° W 00:52:48 10° NNW visible
04 Jul ? 23:21:28 23° ESE 23:22:56 29° ENE 23:26:34 10° N visible
05 Jul ? 00:58:06 26° WSW 00:58:30 26° W 01:02:03 10° NW visible
05 Jul ? 23:31:01 29° ESE 23:32:18 36° ENE 23:36:08 10° N visible
06 Jul ? 01:07:40 21° W 01:08:00 21° W 01:11:14 10° NW visible
06 Jul ? 23:40:34 36° ESE 23:41:40 45° ENE 23:45:40 10° N visible
07 Jul ? 01:17:12 17° W 01:17:30 17° W 01:20:18 10° NW visible
07 Jul ? 23:50:07 45° ESE 23:51:02 57° ENE 23:55:09 10° N visible
08 Jul ? 01:26:45 14° W 01:27:01 14° W 01:29:12 10° WNW visible
08 Jul ? 23:59:39 55° SE 00:00:25 72° ENE 00:04:36 10° N visible
09 Jul ? 01:36:17 11° W 01:36:31 11° W 01:37:41 10° WNW visible
09 Jul ? 22:34:05 10° ENE 22:34:54 10° ENE 22:35:45 10° NE visible
10 Jul ? 00:09:11 64° SSE 00:09:48 89° WSW 00:14:01 10° NNW visible
10 Jul ? 22:42:17 10° E 22:44:11 13° ENE 22:46:04 10° NNE visible
11 Jul ? 00:18:43 63° SSW 00:19:12 71° WSW 00:23:23 10° NNW visible
11 Jul ? 22:51:36 12° E 22:53:27 16° ENE 22:55:57 10° NNE visible
